Showing default

ALSAT 2B, 41786

Orbit data source: Space-Track

ALSAT 2B, 41786 is a payload satellite owned by ASAL (DZ) in SSO that was launched on Mon, 26 Sep 2016 UTC via a PSLV launch vehicle from the Sirharikota (SRI). Payload-class satellites include a variety of spacecraft equipped with specific instruments for various scientific and technological missions. These include communications satellites like Starlink; space stations such as the ISS; scientific satellites like the Hubble; Earth observation satellites from companies like Planet Labs, Umbra, and HawkEye 360; GPS; miniature CubeSats for education and research; and military/defense satellites.

Loading next visibility...
Identifier
41786, 2016-059D
Orbit
SSO
Country
Flag of DZDZ / ALG
Related business
Manufacturer
Airbus/Toulouse
Mission
Operational Civil Imaging
Bus & Motor
MYRIADE, AOCS
Mass
117 kg wet, 117 kg dry
Launch date (UTC)
2016-09-26 (9 years ago)
Launch vehicle
PSLV
Launch site
Sirharikota (SRI)
Object type
Payload
Rocket body
Debris
Shape & HBR
Box + 1 Pan, 0.9 m
Radar Cross Section
0.912 m², Medium (>0.1 m² and < 1m²)

Expand to show TLE details & history
Last TLE update: 8 hours ago

TLE from 8 hours ago
0 ALSAT 2B
1 41786U 16059D   26037.24894429  .00000901  00000-0  15591-3 0  9991
2 41786  98.0077 101.9522 0000599  84.6196 275.5079 14.70671213501526
Epoch: 2026-02-06T05:58Z
TLE epoch observation values (Epoch: 2026-02-06T05:58:28.786Z)
Latitude
-0.00002°
Longitude
-124.05727°
Altitude
661.891 km
Speed
7.526 km/s
True Right ascension
06h 47m 48s
True Declination
0° 00' 00"
Sunlit
Object was in full shadow at epoch
Visualization orbit readout
Latitude
Unknown
Longitude
Unknown
Altitude
Unknown
Speed
Unknown
Apparent Right ascension
Unknown
Apparent Declination
Unknown
Sunlit
N/A
Visualization observer readout
Local Sidereal Time
15:37:22
Azimuth
Unknown
Elevation
Unknown
Doppler factor
Unknown
Orbital elements
Apogee altitude
656.406 km
Perigee altitude
655.563 km
Semi-major axis
7,034.121 km
Eccentricity
0.00006
Inclination
98.0077°
RAAN
101.9522°
Arg. of periapsis
84.6196°
True anomaly
275.50107°
Mean anomaly
275.5079°
Eccentric anomaly
275.50448°
Mean motion
3.67899 °/min
Orbital period
97.85 mins
BSTAR
0.00015591
Loading maneuver chart data...
Computing Atmospheric mass density...
Loading historical data...
Loading historical data...
Loading historical data...
Loading historical data...
Loading historical data...
Loading historical data...
Loading historical data...

Documentation

Showing up to 5 results
|